Regional Weather Roundup
Issued by NWS Wakefield, VA

Home | Current Version | Previous Version | Text Only | Print | Product List | Glossary Off
Versions: 1 2 3 4 5 6 7 8 9 10 11 12 13 14 15 16 17 18 19 20 21 22 23 24 25 26 27

000
ASUS41 KAKQ 270615
RWRAKQ

REGIONAL WEATHER ROUNDUP
NATIONAL WEATHER SERVICE WAKEFIELD VA
200 AM EDT THU JUL 27 2017

Note: "fair" indicates few or no clouds below 12,000 feet with no
significant weather and/or obstructions to visibility. * = Denotes
station may not report precipitation (e.g., rain,snow,etc.),
thunder or fog.

VAZ042-051-052>054-056-270700-
NORTHERN VIRGINIA

CITY           SKY/WX    TMP DP  RH WIND       PRES   REMARKS
WASH NATIONAL  CLOUDY    74  70  87 S12       30.09F
DULLES         MOCLDY    71  66  84 S6        30.08F
FORT BELVOIR   CLOUDY    73  68  85 SE6       30.08F
QUANTICO       MOCLDY    76  70  82 S16       30.09F
FREDERICKSBRG* CLOUDY    71  67  87 SE5       30.08F
STAFFORD*      MOCLDY    70  68  94 CALM      30.13S
WARRENTON      MOCLDY    72  64  75 CALM      30.08F
CULPEPER*      CLOUDY    72  67  85 CALM      30.09F
MANASSAS*      CLOUDY    71  67  87 S6        30.08F
LEESBURG*      PTCLDY    73  70  88 S9        30.08F
WINCHESTER     CLEAR     68  64  88 SE5       30.06F
FRONT ROYAL*   PTCLDY    68  64  88 CALM      30.06F
LURAY*         CLEAR     68  66  94 CALM      30.08F
$$

VAZ048-049-060>072-079>083-270700-
CENTRAL AND SOUTH CENTRAL VIRGINIA

CITY           SKY/WX    TMP DP  RH WIND       PRES   REMARKS
RICHMOND       MOCLDY    71  67  87 S7        30.10F
CHESTERFIELD*  NOT AVBL
PETERSBURG*    PTCLDY    69  65  85 CALM      30.11S
HANOVER        MOCLDY    72  64  76 SE6       30.11S
TAPPAHANNOCK*  PTCLDY    72  62  70 CALM      30.11S
QUINTON*       MOCLDY    72  67  84 S6        30.10F
CHARLOTTSVILLE PTCLDY    70  67  90 CALM      30.09S
GORDONSVILLE*  PTCLDY    67  67  99 CALM      30.08F
ORANGE*        PTCLDY    68  64  88 CALM      30.09S
LOUISA*        PTCLDY    70  64  83 SE5       30.08F
BUMPASS*       FAIR      70  66  87 CALM      30.09F
FARMVILLE*     CLOUDY    74  69  85 CALM      30.07S
CREWE*         MOCLDY    73  68  84 S6        30.09S
FORT PICKETT*  FAIR     N/A N/A N/A S10       30.10S
CHASE CITY*    FAIR      75  70  83 SE3       30.09F
CLARKSVILLE*   FAIR      73  70  88 S3        30.08F
SOUTH HILL*    MOCLDY    73  69  87 S6        30.15F
LAWRENCEVILLE* MOCLDY    71  67  87 SE3       30.10F
EMPORIA*       PTCLDY    70  66  88 SE3       30.12S
$$

VAZ088>098-270700-
SOUTHEAST VIRGINIA

CITY           SKY/WX    TMP DP  RH WIND       PRES   REMARKS
NORFOLK        MOCLDY    74  67  78 S6        30.10F
VIRGINIA BEACH PTCLDY    71  65  81 E5        30.10F
NORFOLK NAVAL  MOCLDY    73  65  75 SE6       30.11F
WEST POINT*    PTCLDY    73  66  79 S8        30.11F
SALUDA*        MOCLDY    72  67  86 SE3       30.10F
NEWPORT NEWS   MOCLDY    73  65  75 S6        30.10F
LANGLEY AFB    PTCLDY    73  67  80 S8        30.10F
FORT EUSTIS    PTCLDY    74  66  77 S9        30.08S
WILLIAMSBURG*  PTCLDY    75  66  73 S5        30.11F
HR EXEC AP*    FAIR      66  63  88 SE3       30.09S
FRANKLIN*      MOCLDY    70  66  88 CALM      30.11S
US460-WAKEFLD  PTCLDY    70  67  90 CALM      30.10F
$$

VAZ020-022-025-037-045-270700-
WEST CENTRAL AND SOUTHWEST VIRGINIA

CITY           SKY/WX    TMP DP  RH WIND       PRES   REMARKS
STAUNTON*      PTCLDY    65  64  96 CALM      30.12S
WAYNESBORO*    PTCLDY    65  65  99 CALM      30.11F
HOT SPRINGS VA PTCLDY    64  63  94 CALM      30.22F FOG
LYNCHBURG      CLEAR     69  67  93 CALM      30.10F
DANVILLE       MOCLDY    70  70 100 CALM      30.09F
SOUTH BOSTON*  FAIR      73  71  96 CALM      30.08F
MARTINSVILLE   CLOUDY    67  66  96 CALM      30.12F
ROANOKE        PTCLDY    71  68  90 CALM      30.12F
BLACKSBURG     CLOUDY    71  66  85 S3        30.18S
DUBLIN*        CLOUDY    67  63  86 CALM      30.16F FOG
MARION*        CLEAR     66  62  88 CALM      30.19S FOG
HILLSVILLE*    CLOUDY    68  64  86 CALM      30.17F
RICHLANDS*     FAIR      68  61  76 CALM      30.16F
WISE*          PTCLDY    72  63  73 CALM      30.17S
ABINGDON*      MOCLDY    72  68  88 NE3       30.14S
$$

MDZ021>025-VAZ099-100-270700-
SOUTHERN MARYLAND AND THE DELMARVA PENINSULA

CITY           SKY/WX    TMP DP  RH WIND       PRES   REMARKS
PATUXENT RIVER MOCLDY    73  68  84 S5        30.09F
BAY BRIDGE APT MOCLDY    72  66  83 SE12      30.09F
LEONARDTOWN    PTCLDY    72  66  83 CALM      30.11F
DOVER          PTCLDY    67  67 100 SE7       30.09F
GEORGETOWN     CLOUDY    67  64  90 CALM      30.12F
EASTON         PTCLDY    70  65  86 SE5       30.14F
CAMBRIDGE      CLOUDY    68  66  94 SE7       30.10F
SALISBURY      CLOUDY    67  66  97 CALM      30.12S
OCEAN CITY     MOCLDY    72  67  84 CALM      30.11F
WALLOPS ISLAND PTCLDY    71  67  87 S8        30.12S
ACCOMACK*      PTCLDY    69  66  89 SE5       30.11F
$$

NCZ012>017-030>032-270700-
NORTH CENTRAL AND EASTERN NORTH CAROLINA

CITY           SKY/WX    TMP DP  RH WIND       PRES   REMARKS
ROANOKE RAPIDS FAIR      70  68  94 CALM      30.11S
RALEIGH        MOCLDY    78  69  73 S9        30.11S
ELIZABETH CITY CLOUDY    74  70  87 SE3       30.10F
AHOSKIE*         N/A     69  67  94 CALM      30.11F
EDENTON*       PTCLDY    74  68  79 CALM      30.12S
CURRITUCK*     CLOUDY    70  70 100 CALM      30.12S
KILL DEVIL HLS PTCLDY    71  66  83 CALM      30.09F
MANTEO         PTCLDY    71  66  85 CALM      30.11F
CAPE HATTERAS  CLEAR     74  69  85 NE5       30.09F
TARBORO*       NOT AVBL
GOLDSBORO      PTCLDY    71  71 100 CALM      30.08F
WASHINGTON     MOCLDY    69  67  92 CALM      30.11S
GREENVILLE     PTCLDY    72  68  88 CALM      30.12S
NEW BERN       CLEAR     70  68  93 CALM      30.11S
WILMINGTON     CLEAR     72  71  97 CALM      30.08S
$$

VAZ048-270700-
ELSEWHERE

CITY           SKY/WX    TMP DP  RH WIND       PRES   REMARKS
HARRISBURG PA  CLOUDY    70  67  90 SE7       30.08F
BALTIMORE      CLOUDY    72  68  87 SE5       30.08F
ANNAPOLIS      CLOUDY    75  72  90 SE13      30.08F
ANDREWS AFB    CLOUDY    71  68  89 S8        30.08F
PHILADELPHIA   CLOUDY    67  61  81 SE6       30.12F
HENDERSON NC   CLEAR     72  65  80 S6        30.10S
GREENSBORO     PTCLDY    75  71  87 SW8       30.10F
ROCKY MOUNT    NOT AVBL
$$

VAZ100-270700-
MARINE

STATION/POSITION TIME  TEMP    WIND        PRES    WAVE   SWELL
                       AIR SEA DIR/SP/G            HT/PER HT/PER
                 (UTC) (F)     (DEG/KT/KT) (MB)    (FT/S) (FT/S)
BRANDYWINE LGT   0548          210/  8/  9   N/A
CAPE MAY NJ      0548   70 76  120/  2/  3 1019.2F
LEWES DE         0548   70 75  180/  2/  2 1019.5F
15NM E FENWICK I 0550   72 77  170/  4/  4 1020.3F   2/ 6   2/ 6
OCEAN-CITY-INLET 0548   72 73  180/  3/  4 1020.1F
WACHAPREAGUE VA  0548   74 79  130/  8/ 10 1019.4F
THOMAS POINT MD  0600   74 81  150/ 19/ 21   N/A
GOOSES REEF MD   0550   77     190/ 16/ 17 1019.8F
COVE POINT MD    0548   75     200/ 13/ 15 1019.7F
SOLOMONS ISLAND  0548          150/  8/ 10   N/A
BISHOPS HEAD MD  0548   75 81  180/ 12/ 15 1019.4F
PINEY POINT MD   0548          190/ 12/ 14   N/A
CAMBRIDGE MD     0548   70 84              1020.0F
LEWISETTA VA     0548   73 82  200/  5/  6 1019.1F
RAPPAHANNOCK LGT 0548          150/ 10/ 12 1019.9F
STINGRAY PT      0550   76     190/ 12/ 16 1019.0F
YORK RVR RNG VA  0548   75     170/ 14/ 17 1019.4F
YORKTOWN VA      0548   74 82  180/  5/  7 1019.0F
JAMESTOWN VA     0550          160/ 10/ 12   N/A
DOMINION TERM VA 0548   74     160/ 10/ 12 1019.3F
KIPTOPEKE VA     0548      75  140/  5/  7   N/A
CHES BAY BRIDGE  0548   73 69  170/  9/ 10 1019.2F
CAPE HENRY VA    0548   72     150/  6/  8   N/A
WILLOUBY STN VA  0548   74     150/  8/ 10 1019.3F
S CRANEY ISL VA  0548   75     210/  3/  7 1019.1F
CAPE HENRY BUOY  0530      73                N/A     3/ 6
1ST LANDING BUOY 0550   74                 1019.3F
64NM E OF VA BCH 0550   74 77   90/  4/  4 1019.9F   3/ 8   3/ 8
DUCK PIER NC     0548   74 75  130/  3/  4 1019.3F
44100 DUCK FRF   0505      76                N/A     3/ 8
44056 DUCK FRF   0600      74                N/A     3/ 7
OREGON INLET NC  0548           70/  3/  4   N/A
HATTERAS NC      0548   75 79   50/  3/  4 1018.9F
DIAMOND SHLS NC  0550   80 83   80/  6/  8 1018.6F   3/ 8   3/ 8
CAPE LOOKOUT NC  0500   79      80/  7/  8 1018.5F
$$




USA.gov is the U.S. government's official web portal to all federal, state and local government web resources and services.